Content
SEND FEEDBACK

Daily
Averages
Monthly
Summary
United States of America

AGAT, GUAM


Home > North America > United States > Guam
Elevation: 364 feet     Latitude: 13 33N     Longitude: 144 50E

WEATHER
 
SELECT A DAY
Number of Records: 214,876;   Date Range: 1/1/95 - 11/24/14
 
SHARE

PRINT THIS DATA

[ ← Previous Day ]
WEATHER ALMANAC - JUNE 9, 2014
[ Next Day → ]
[ °C ]   °F
Weather ElementAverageHighLow
Temperature84.8 °F88 °F (10:54 am)82 °F (1:54 am)
Dewpoint77.5 °F79 °F (7:54 am)75.9 °F (4:54 pm)
Humidity78.8 %88 % (6:54 am)69 % (4:54 pm)
Barometer29.78 in29.82 in (8:31 am)29.73 in (3:54 pm)
Wind Speed9.5 mph16.1 mph (9:54 am)
Wind Gust21.9 mph (9:54 am)
Weather ElementAverage
Visibility9.9 mi
Wind DirectionE (85.7 °)

Weather ElementTotal
Precipitation0.06 in
Cooling Degree Days20 (Base 65)
Growing Degree Days35 (Base 50)
Averaged from 28 records on June 9, 2014
WEATHER CONDITIONS BREAKOUT
WIND DIRECTION BREAKOUT
WEATHER BY HOUR - JUNE 9, 2014
[ °C ]   °F
Local TimeTemperatureDewpointHumidityBarometerVisibilityWind DirectionWind SpeedGust SpeedPrecipitationEventsConditions
1:54 AM82.0 °F77.0 °F85 %29.78 in10.0 miNE (50°)5.8 mphClear
2:54 AM82.0 °F77.0 °F85 %29.75 in10.0 miENE (60°)5.8 mphClear
3:54 AM82.0 °F77.0 °F85 %29.75 in10.0 miNE (40°)3.5 mphClear
4:54 AM82.0 °F77.0 °F85 %29.75 in10.0 miENE (70°)8.1 mphPartly Cloudy
5:54 AM82.0 °F77.0 °F85 %29.77 in10.0 miEast (80°)6.9 mphClear
6:54 AM82.0 °F78.1 °F88 %29.78 in10.0 miEast (90°)8.1 mph0.02 inClear
7:54 AM84.0 °F79.0 °F85 %29.78 in10.0 miEast (90°)10.4 mph0.00 inScattered Clouds
8:31 AM84.2 °F78.8 °F84 %29.82 in10.0 miEast (100°)15.0 mph20.7 mphMostly Cloudy
8:54 AM84.9 °F78.1 °F80 %29.80 in10.0 miEast (100°)13.8 mphScattered Clouds
9:54 AM87.1 °F78.1 °F74 %29.79 in10.0 miEast (80°)16.1 mph21.9 mphScattered Clouds
10:54 AM88.0 °F78.1 °F72 %29.78 in10.0 miESE (110°)11.5 mph21.9 mphScattered Clouds
11:54 AM88.0 °F77.0 °F70 %29.77 in10.0 miEast (90°)12.7 mph20.7 mphScattered Clouds
12:47 PM87.8 °F77.0 °F70 %29.78 in10.0 miEast (100°)13.8 mphMostly Cloudy
12:54 PM86.0 °F77.0 °F74 %29.76 in10.0 miESE (110°)12.7 mphMostly Cloudy
1:28 PM87.8 °F77.0 °F70 %29.78 in10.0 miSE (130°)9.2 mphScattered Clouds
1:54 PM87.1 °F77.0 °F72 %29.75 in10.0 miEast (90°)10.4 mphScattered Clouds
2:17 PM87.8 °F78.8 °F75 %29.77 in8.0 miEast (100°)12.7 mph0.00 inRainLight Rain
2:33 PM84.2 °F78.8 °F84 %29.77 in10.0 miEast (90°)11.5 mph0.02 inRainLight Rain
2:54 PM84.9 °F79.0 °F82 %29.75 in10.0 miEast (80°)10.4 mph0.02 inMostly Cloudy
3:54 PM87.1 °F77.0 °F72 %29.73 in10.0 miESE (110°)12.7 mphScattered Clouds
4:54 PM87.1 °F75.9 °F69 %29.74 in10.0 miEast (90°)15.0 mph20.7 mphScattered Clouds
5:54 PM86.0 °F77.0 °F74 %29.75 in10.0 miESE (110°)8.1 mph16.1 mphPartly Cloudy
6:54 PM84.0 °F77.0 °F79 %29.77 in10.0 miESE (110°)9.2 mphPartly Cloudy
7:54 PM84.0 °F75.9 °F76 %29.79 in10.0 miEast (100°)8.1 mphPartly Cloudy
8:54 PM84.0 °F77.0 °F79 %29.81 in10.0 miESE (110°)8.1 mphScattered Clouds
9:54 PM82.9 °F78.1 °F85 %29.82 in10.0 miESE (110°)5.8 mphClear
10:54 PM82.9 °F77.0 °F82 %29.82 in10.0 miCalmPartly Cloudy
11:54 PM82.9 °F78.1 °F85 %29.81 in10.0 miCalmScattered Clouds
Hourly data recorded from PGUM, located miles away from Agat, Guam







STORIES FROM OUR PARTNERS